1516791600.77,24766,5.88,73842.0,-0.73,-1.71,-1.63,0,*66
1516791601.98,24767,5.88,73840.5,-0.73,-1.51,-1.47,0,*63
1516791603.16,24768,5.88,73850.8,-0.73,-1.51,-1.51,0,*6B
1516791604.37,24769,5.88,73850.3,-0.73,-1.43,-1.25,0,*6A
1516791605.64,24770,5.88,73844.0,-0.71,-1.43,-1.43,0,*60
1516791606.85,24771,5.88,73848.0,-0.71,-1.59,-1.55,0,*6D
1516791608.05,24772,5.88,73866.8,-0.71,-1.59,-1.55,0,*6E
1516791609.25,24773,5.88,73862.5,-0.69,-1.21,-1.17,0,*6F
1516791610.43,24774,5.88,73838.0,-0.69,-2.27,-2.27,0,*6D
1516791611.62,24775,5.88,73836.3,-0.69,-2.43,-2.35,0,*6D
1516791612.85,24776,5.88,73836.8,-0.69,-1.95,-1.91,0,*6B
1516791614.04,24777,5.88,73836.3,-0.69,-3.03,-3.03,0,*6E
1516791615.25,24778,5.88,73836.5,-0.71,-3.07,-3.11,0,*6F
1516791616.44,24779,5.88,73836.8,-0.73,-3.07,-3.07,0,*6B
1516791617.67,24780,5.88,73832.0,-0.73,-2.71,-2.59,0,*67
1516791618.89,24781,5.88,73838.3,-0.73,-2.19,-2.07,0,*63
1516791620.08,24782,5.88,73838.3,-0.73,-1.71,-1.59,0,*65
1516791621.31,24783,5.88,73836.5,-0.71,-1.55,-1.47,0,*6F
1516791622.58,24784,5.88,73838.3,-0.71,-1.47,-1.43,0,*6F
1516791623.76,24785,5.88,73844.5,-0.73,-1.59,-1.59,0,*68
1516791624.99,24786,5.88,73846.3,-0.71,-1.59,-1.47,0,*66
1516791626.23,24787,5.88,73850.3,-0.71,-1.91,-1.79,0,*6E
1516791627.5,24788,5.88,73850.8,-0.71,-1.91,-1.83,0,*64
1516791628.71,24789,5.88,73850.3,-0.71,-1.67,-1.67,0,*66
1516791629.95,24790,5.88,73850.3,-0.71,-2.15,-2.03,0,*69
1516791631.19,24791,5.88,73840.5,-0.71,-2.47,-2.31,0,*6E
1516791632.43,24792,5.88,73840.5,-0.71,-2.91,-2.75,0,*66
1516791633.64,24793,5.88,73838.3,-0.73,-2.83,-2.71,0,*62
1516791634.83,24794,5.88,73832.0,-0.73,-2.35,-2.35,0,*68
1516791636.02,24795,5.88,73846.5,-0.73,-2.31,-2.19,0,*63
1516791637.2,24796,5.88,73846.8,-0.73,-2.39,-2.31,0,*62
1516791638.39,24797,5.88,73834.8,-0.73,-2.31,-2.23,0,*68
1516791639.64,24798,5.88,73834.5,-0.73,-2.63,-2.63,0,*64
1516791640.87,24799,5.88,73838.5,-0.73,-1.95,-1.87,0,*66
1516791642.08,24800,5.88,73844.0,-0.73,-2.19,-2.11,0,*62
1516791643.33,24801,5.88,73836.0,-0.71,-2.47,-2.31,0,*68
1516791644.54,24802,5.88,73834.3,-0.73,-2.47,-2.39,0,*61
1516791645.79,24803,5.88,73834.3,-0.73,-2.51,-2.47,0,*6E
1516791647.03,24804,5.88,73842.3,-0.73,-2.75,-2.63,0,*69
1516791648.21,24805,5.88,73848.8,-0.73,-3.23,-3.15,0,*6A
1516791649.41,24806,5.88,73850.8,-0.73,-4.69,-4.61,0,*64
1516791650.64,24807,5.88,73844.0,-0.77,-4.85,-4.93,0,*6E
1516791651.89,24808,5.88,73838.0,-0.81,-4.73,-4.81,0,*62
1516791653.08,24809,5.88,73824.0,-0.81,-4.57,-4.61,0,*6B
1516791654.3,24810,5.88,73814.0,-0.85,-4.17,-4.25,0,*63
1516791655.5,24811,5.88,73808.0,-0.85,-3.23,-3.19,0,*6A
1516791656.71,24812,5.88,73804.5,-0.85,-3.11,-3.07,0,*67
1516791657.97,24813,5.88,73798.8,-0.89,-3.63,-3.55,0,*68
1516791659.18,24814,5.88,73786.0,-0.91,-3.75,-3.67,0,*60
1516791660.37,24815,5.88,73784.8,-0.91,-3.15,-3.23,0,*67
1516791661.58,24816,5.88,73794.5,-0.89,-2.87,-2.79,0,*69
1516791662.79,24817,5.88,73792.8,-0.91,-2.51,-2.39,0,*6E
1516791664.04,24818,5.88,73790.3,-0.91,-2.67,-2.55,0,*6E
1516791665.28,24819,5.88,73796.8,-0.91,-2.67,-2.51,0,*6B
1516791666.55,24820,5.88,73810.5,-0.89,-2.75,-2.55,0,*6F
1516791667.75,24821,5.88,73816.3,-0.89,-2.39,-2.27,0,*63
1516791668.96,24822,5.88,73822.8,-0.89,-2.27,-2.15,0,*6E
1516791670.17,24823,5.88,73816.3,-0.89,-2.27,-2.15,0,*6F
1516791671.41,24824,5.88,73806.8,-0.85,-1.87,-1.71,0,*6C
1516791672.63,24825,5.88,73806.0,-0.85,-1.71,-1.63,0,*67
1516791673.87,24826,5.88,73810.0,-0.85,-1.83,-1.71,0,*6A
1516791675.14,24827,5.88,73814.5,-0.83,-2.03,-1.91,0,*68
1516791676.41,24828,5.88,73824.0,-0.83,-2.03,-1.91,0,*67
1516791677.68,24829,5.88,73820.3,-0.83,-1.95,-1.91,0,*6A
1516791678.9,24830,5.88,73810.0,-0.83,-2.79,-2.79,0,*66
1516791680.09,24831,5.88,73814.0,-0.81,-2.91,-2.83,0,*66
1516791681.3,24832,5.88,73826.3,-0.83,-2.83,-2.79,0,*61
1516791682.52,24833,5.88,73828.5,-0.83,-2.27,-2.15,0,*64
1516791683.73,24834,5.88,73834.5,-0.83,-2.27,-2.19,0,*6F
1516791684.95,24835,5.88,73832.8,-0.83,-2.31,-2.27,0,*64
1516791686.22,24836,5.88,73836.3,-0.83,-2.03,-1.95,0,*6C
1516791687.41,24837,5.88,73842.5,-0.81,-2.15,-2.19,0,*6F
1516791688.63,24838,5.88,73842.3,-0.81,-2.59,-2.39,0,*6A
1516791689.82,24839,5.88,73844.5,-0.81,-2.39,-2.31,0,*65
1516791691.04,24840,5.88,73846.8,-0.81,-1.83,-1.71,0,*6E
1516791692.28,24841,5.88,73844.8,-0.79,-1.91,-1.79,0,*63
1516791693.5,24842,5.88,73838.0,-0.79,-2.39,-2.35,0,*6A
1516791694.74,24843,5.88,73830.0,-0.79,-2.15,-2.11,0,*63
1516791695.95,24844,5.88,73826.5,-0.79,-1.79,-1.63,0,*6B
1516791697.2,24845,5.88,73828.8,-0.79,-1.91,-1.67,0,*68
1516791698.41,24846,5.88,73834.8,-0.79,-1.75,-1.55,0,*60
1516791699.59,24847,5.88,73838.5,-0.77,-2.43,-2.27,0,*6F
1516791700.84,24848,5.88,73838.8,-0.77,-2.75,-2.55,0,*60
1516791702.08,24849,5.88,73844.5,-0.77,-1.99,-1.91,0,*6B
1516791703.3,24850,5.88,73830.0,-0.77,-1.87,-1.75,0,*66
1516791704.54,24851,5.88,73824.8,-0.75,-1.95,-1.71,0,*62
1516791705.73,24852,5.88,73832.0,-0.77,-1.67,-1.55,0,*68
1516791706.92,24853,5.88,73830.5,-0.77,-1.71,-1.63,0,*6B
1516791708.16,24854,5.88,73832.0,-0.75,-1.59,-1.47,0,*62
1516791709.37,24855,5.88,73836.3,-0.77,-1.55,-1.47,0,*6D
1516791710.59,24856,5.88,73840.0,-0.73,-1.43,-1.33,0,*6E
1516791711.82,24857,5.88,73850.0,-0.73,-1.35,-1.13,0,*6C
1516791713.07,24858,5.88,73848.3,-0.71,-2.03,-1.95,0,*69
1516791714.31,24859,5.88,73840.8,-0.71,-2.47,-2.43,0,*60
1516791715.53,24860,5.88,73840.8,-0.71,-2.19,-2.19,0,*6E
1516791716.77,24861,5.88,73838.0,-0.73,-1.99,-1.87,0,*62
1516791718.0,24862,5.88,73836.0,-0.73,-1.99,-1.95,0,*62
1516791719.26,24863,5.88,73840.8,-0.71,-2.03,-1.95,0,*61
1516791720.47,24864,5.88,73842.3,-0.71,-2.43,-2.27,0,*68
1516791721.7,24865,5.88,73840.0,-0.73,-1.95,-1.95,0,*69
1516791722.94,24866,5.88,73840.8,-0.73,-2.07,-2.03,0,*6E
1516791724.13,24867,5.88,73846.5,-0.73,-3.11,-3.07,0,*6C
1516791725.36,24868,5.88,73840.5,-0.73,-3.51,-3.47,0,*63
1516791726.62,24869,5.88,73838.8,-0.75,-3.71,-3.71,0,*63
1516791727.82,24870,5.88,73832.0,-0.77,-3.79,-3.75,0,*65
1516791729.03,24871,5.88,73822.3,-0.77,-3.51,-3.39,0,*66
1516791730.22,24872,5.88,73814.3,-0.77,-3.27,-3.15,0,*6A
1516791731.47,24873,5.88,73798.8,-0.81,-2.47,-2.47,0,*63
1516791732.72,24874,5.88,73796.5,-0.79,-2.15,-1.99,0,*64
1516791733.96,24875,5.88,73804.5,-0.79,-2.15,-2.11,0,*66
1516791735.23,24876,5.88,73818.0,-0.79,-1.99,-1.87,0,*6E
1516791736.44,24877,5.88,73816.5,-0.79,-1.67,-1.55,0,*61
1516791737.66,24878,5.88,73826.3,-0.79,-1.55,-1.51,0,*6B
1516791738.93,24879,5.88,73826.3,-0.79,-1.87,-1.87,0,*6E
1516791740.19,24880,5.88,73828.0,-0.75,-1.99,-1.95,0,*68
1516791741.46,24881,5.88,73828.8,-0.75,-1.87,-1.87,0,*65
1516791742.67,24882,5.88,73834.0,-0.75,-1.63,-1.59,0,*6F
1516791743.86,24883,5.88,73828.8,-0.77,-1.51,-1.51,0,*65
1516791745.13,24884,5.88,73830.5,-0.75,-1.43,-1.35,0,*61
1516791746.38,24885,5.88,73836.0,-0.75,-0.85,-0.85,0,*61
1516791747.58,24886,5.88,73834.8,-0.75,-0.61,-0.57,0,*67
1516791748.81,24887,5.88,73838.5,-0.71,-0.85,-0.81,0,*63
1516791750.03,24888,5.88,73840.5,-0.71,-1.33,-1.21,0,*6B
1516791751.27,24889,5.88,73840.3,-0.69,-1.09,-1.05,0,*6C
1516791752.5,24890,5.88,73842.3,-0.69,-1.05,-0.93,0,*56
1516791753.71,24891,5.88,73846.8,-0.67,-0.77,-0.81,0,*6E
1516791754.9,24892,5.88,73844.8,-0.69,-1.33,-1.33,0,*6A
1516791756.12,24893,5.88,73846.5,-0.67,-1.29,-1.29,0,*65
1516791757.36,24894,5.88,73842.8,-0.63,-1.51,-1.47,0,*61
1516791758.57,24895,5.88,73844.8,-0.63,-1.63,-1.59,0,*6E
1516791759.81,24896,5.88,73846.0,-0.67,-1.51,-1.39,0,*6E
1516791761.02,24897,5.88,73844.5,-0.63,-1.25,-1.33,0,*62
1516791762.23,24898,5.88,73844.8,-0.63,-1.63,-1.63,0,*6A
1516791763.5,24899,5.88,73848.0,-0.63,-1.87,-1.87,0,*6B
1516791764.77,24900,5.88,73850.3,-0.63,-1.87,-1.87,0,*6A
1516791766.04,24901,5.88,73846.0,-0.63,-2.07,-2.07,0,*6B
1516791767.31,24902,5.88,73840.5,-0.63,-1.99,-1.87,0,*67
1516791768.58,24903,5.88,73832.5,-0.67,-1.43,-1.39,0,*60
1516791769.8,24904,5.88,73834.5,-0.67,-1.67,-1.63,0,*6E
1516791771.07,24905,5.88,73828.5,-0.67,-1.43,-1.39,0,*66
1516791772.28,24906,5.88,73834.3,-0.67,-1.55,-1.55,0,*68
1516791773.55,24907,5.88,73836.0,-0.63,-2.07,-1.95,0,*65
1516791774.79,24908,5.88,73846.0,-0.63,-2.19,-2.07,0,*6D
1516791776.06,24909,5.88,73850.5,-0.67,-1.99,-1.87,0,*68
1516791777.3,24910,5.88,73846.5,-0.61,-2.07,-2.11,0,*6E
1516791778.55,24911,5.88,73842.5,-0.61,-2.51,-2.51,0,*68
1516791779.74,24912,5.88,73842.3,-0.69,-2.31,-2.19,0,*69
1516791780.92,24913,5.88,73842.8,-0.69,-2.43,-2.35,0,*63
1516791782.11,24914,5.88,73840.0,-0.69,-2.19,-2.15,0,*69
1516791783.35,24915,5.88,73836.8,-0.67,-1.91,-1.79,0,*6C
1516791784.6,24916,5.88,73842.3,-0.69,-2.03,-1.83,0,*6C
1516791785.81,24917,5.88,73838.8,-0.67,-1.75,-1.67,0,*6B
1516791787.01,24918,5.88,73838.5,-0.69,-1.79,-1.71,0,*61
1516791788.22,24919,5.88,73836.0,-0.67,-1.55,-1.51,0,*62
1516791789.41,24920,5.88,73840.0,-0.69,-1.33,-1.29,0,*69
1516791790.65,24921,5.88,73838.3,-0.67,-1.35,-1.25,0,*6C
1516791791.89,24922,5.88,73836.8,-0.63,-1.35,-1.33,0,*6C
1516791793.11,24923,5.88,73842.3,-0.63,-1.33,-1.21,0,*68
1516791794.32,24924,5.88,73846.8,-0.61,-1.35,-1.25,0,*6F
1516791795.55,24925,5.88,73844.0,-0.61,-1.09,-0.89,0,*56
1516791796.81,24926,5.88,73850.8,-0.63,-1.13,-1.09,0,*65
1516791798.0,24927,5.88,73844.5,-0.61,-1.33,-1.33,0,*6D
1516791799.22,24928,5.88,73844.0,-0.61,-2.23,-2.11,0,*63
1516791800.43,24929,5.88,73844.3,-0.61,-1.83,-1.75,0,*6A
1516791801.68,24930,5.88,73840.3,-0.61,-1.39,-1.39,0,*6B
1516791802.88,24931,5.88,73842.8,-0.61,-1.21,-1.21,0,*6A
1516791804.12,24932,5.88,73842.5,-0.57,-1.47,-1.35,0,*69
1516791805.33,24933,5.88,73840.3,-0.59,-1.59,-1.55,0,*6F
1516791806.6,24934,5.88,73838.3,-0.59,-1.95,-1.91,0,*60
1516791807.81,24935,5.94,73846.3,-0.59,-1.67,-1.55,0,*64
1516791809.06,24936,5.88,73838.8,-0.59,-1.55,-1.43,0,*61
1516791810.3,24937,5.88,73842.3,-0.59,-1.59,-1.47,0,*68
1516791811.54,24938,5.88,73848.3,-0.57,-1.35,-1.35,0,*66
1516791812.76,24939,5.88,73850.3,-0.57,-1.83,-1.71,0,*6A
1516791813.97,24940,5.88,73856.0,-0.57,-2.15,-2.03,0,*6E
1516791815.16,24941,5.88,73844.8,-0.57,-2.43,-2.31,0,*6D
1516791816.35,24942,5.88,73844.3,-0.57,-2.31,-2.19,0,*61
1516791817.59,24943,5.88,73836.8,-0.57,-2.07,-1.95,0,*62
1516791818.86,24944,5.88,73856.5,-0.59,-2.03,-2.03,0,*63
1516791820.1,24945,5.88,73852.0,-0.57,-1.95,-1.83,0,*6B
1516791821.28,24946,5.88,73858.5,-0.57,-1.79,-1.59,0,*6D
1516791822.47,24947,5.88,73848.0,-0.57,-2.35,-2.23,0,*69
1516791823.69,24948,5.88,73852.8,-0.57,-2.23,-2.07,0,*67
1516791824.93,24949,5.88,73850.0,-0.59,-2.15,-1.95,0,*65
1516791826.2,24950,5.88,73842.5,-0.59,-2.07,-1.83,0,*69
1516791827.41,24951,5.88,73846.0,-0.57,-1.59,-1.35,0,*63
1516791828.62,24952,5.88,73850.3,-0.57,-1.59,-1.35,0,*60
1516791829.86,24953,5.88,73854.8,-0.55,-1.99,-1.75,0,*6B
1516791831.11,24954,5.88,73850.5,-0.53,-2.11,-2.03,0,*6B
1516791832.37,24955,5.88,73844.5,-0.55,-2.67,-2.55,0,*6E
1516791833.59,24956,5.88,73842.0,-0.55,-3.19,-2.95,0,*69
1516791834.78,24957,5.88,73836.3,-0.57,-3.31,-3.11,0,*6D
1516791835.96,24958,5.88,73824.8,-0.57,-2.99,-2.79,0,*6E
1516791837.21,24959,5.88,73804.0,-0.59,-2.03,-1.79,0,*61
1516791838.43,24960,5.88,73802.5,-0.57,-1.71,-1.47,0,*6E
1516791839.64,24961,5.88,73794.8,-0.57,-2.59,-2.43,0,*61
1516791840.85,24962,5.88,73772.8,-0.59,-3.07,-2.91,0,*69
1516791842.1,24963,5.88,73768.5,-0.59,-2.47,-2.23,0,*64
1516791843.35,24964,5.88,73808.5,-0.59,-2.91,-2.71,0,*6F
1516791844.59,24965,5.88,73814.8,-0.59,-2.79,-2.55,0,*6E
1516791845.86,24966,5.88,73810.5,-0.59,-2.67,-2.47,0,*61
1516791847.08,24967,5.88,73798.3,-0.61,-2.59,-2.35,0,*63
1516791848.26,24968,5.88,73804.3,-0.61,-2.39,-2.23,0,*6D
1516791849.51,24969,5.88,73820.0,-0.63,-2.87,-2.71,0,*6C
1516791850.75,24970,5.88,73830.0,-0.63,-2.27,-2.11,0,*68
1516791851.99,24971,5.88,73832.5,-0.63,-2.35,-2.11,0,*6A
1516791853.2,24972,5.88,73832.5,-0.61,-2.19,-1.99,0,*66
1516791854.42,24973,5.88,73824.5,-0.61,-1.95,-1.71,0,*66
1516791855.61,24974,5.88,73820.8,-0.61,-1.75,-1.63,0,*6C
1516791856.88,24975,5.88,73816.3,-0.63,-2.11,-1.99,0,*6B
1516791858.1,24976,5.88,73836.3,-0.61,-2.23,-2.07,0,*6F
1516791859.31,24977,5.88,73842.0,-0.61,-2.19,-2.07,0,*67
1516791860.53,24978,5.88,73838.0,-0.61,-2.19,-1.99,0,*6C
1516791861.74,24979,5.88,73840.8,-0.61,-2.35,-2.11,0,*60
1516791862.96,24980,5.88,73834.0,-0.61,-2.63,-2.39,0,*6F
1516791864.18,24981,5.88,73838.8,-0.61,-2.19,-1.99,0,*6A
1516791865.42,24982,5.88,73830.5,-0.59,-2.67,-2.43,0,*6F
1516791866.66,24983,5.88,73828.8,-0.59,-2.55,-2.19,0,*60
1516791867.88,24984,5.88,73830.5,-0.59,-2.35,-2.15,0,*6D
1516791869.15,24985,5.88,73838.5,-0.59,-2.07,-1.83,0,*61
1516791870.37,24986,5.88,73836.5,-0.61,-2.19,-1.99,0,*6D
1516791871.61,24987,5.88,73842.0,-0.61,-1.99,-1.83,0,*6C
1516791872.8,24988,5.88,73838.5,-0.61,-2.39,-2.23,0,*63
1516791874.02,24989,5.88,73846.0,-0.59,-2.99,-2.83,0,*69
1516791875.21,24990,5.88,73854.0,-0.61,-3.39,-3.15,0,*6F
1516791876.42,24991,5.88,73836.0,-0.63,-3.35,-3.11,0,*64
1516791877.67,24992,5.88,73812.0,-0.59,-2.83,-2.71,0,*65
1516791878.93,24993,5.88,73788.0,-0.63,-2.11,-1.95,0,*6F
1516791880.18,24994,5.88,73810.8,-0.63,-1.71,-1.47,0,*62
1516791881.45,24995,5.88,73810.5,-0.63,-2.07,-1.87,0,*6D
1516791882.69,24996,5.88,73818.8,-0.61,-2.07,-1.87,0,*6C
1516791883.94,24997,5.88,73826.8,-0.63,-1.99,-1.75,0,*66
1516791885.18,24998,5.88,73830.3,-0.63,-1.87,-1.63,0,*61
1516791886.39,24999,5.88,73836.8,-0.61,-1.63,-1.47,0,*6E
1516791887.63,25000,5.88,73846.0,-0.63,-1.51,-1.39,0,*6C
1516791888.88,25001,5.88,73844.5,-0.61,-1.47,-1.47,0,*61
1516791890.12,25002,5.88,73836.8,-0.61,-2.07,-1.87,0,*69
1516791891.33,25003,5.88,73842.0,-0.61,-1.83,-1.75,0,*6A
1516791892.52,25004,5.88,73840.8,-0.57,-1.67,-1.55,0,*60
1516791893.79,25005,5.88,73836.3,-0.59,-2.03,-1.83,0,*65
1516791895.04,25006,5.88,73840.3,-0.59,-1.67,-1.47,0,*6F
1516791896.31,25007,5.88,73842.0,-0.59,-2.03,-1.83,0,*67
1516791897.58,25008,5.88,73840.8,-0.59,-2.59,-2.55,0,*6F
1516791898.79,25009,5.88,73838.8,-0.61,-2.83,-2.75,0,*60
1516791900.0,25010,5.88,73832.0,-0.63,-2.27,-2.27,0,*63
1516791901.25,25011,5.88,73826.5,-0.61,-2.11,-2.07,0,*67
1516791902.49,25012,5.88,73826.3,-0.61,-2.07,-1.99,0,*67
1516791903.73,25013,5.88,73826.8,-0.61,-2.11,-1.95,0,*6D
1516791904.95,25014,5.88,73826.3,-0.61,-1.95,-1.75,0,*6B
1516791906.19,25015,5.88,73824.0,-0.61,-2.07,-2.07,0,*64
1516791907.46,25016,5.88,73820.8,-0.63,-2.07,-1.87,0,*6E
1516791908.68,25017,5.88,73822.0,-0.61,-1.47,-1.51,0,*61
1516791909.89,25018,5.88,73822.8,-0.61,-2.19,-2.11,0,*61
1516791911.13,25019,5.88,73826.5,-0.63,-2.19,-2.11,0,*62
1516791912.4,25020,5.88,73824.5,-0.63,-2.07,-2.07,0,*60
1516791913.58,25021,5.88,73828.5,-0.61,-1.63,-1.59,0,*6A
1516791914.8,25022,5.94,73836.5,-0.61,-1.51,-1.39,0,*6E
1516791915.98,25023,5.88,73840.5,-0.61,-1.59,-1.51,0,*69
1516791917.18,25024,5.88,73840.0,-0.61,-1.71,-1.63,0,*65
1516791918.4,25025,5.88,73838.0,-0.59,-1.79,-1.71,0,*64
1516791919.64,25026,5.88,73840.3,-0.61,-1.47,-1.47,0,*64
1516791920.86,25027,5.94,73840.3,-0.59,-1.55,-1.55,0,*6E
1516791922.1,25028,5.88,73840.0,-0.59,-1.35,-1.33,0,*67
1516791923.36,25029,5.88,73844.0,-0.59,-1.09,-1.05,0,*6C
1516791924.56,25030,5.88,73846.0,-0.57,-1.29,-1.21,0,*6E
1516791925.8,25031,5.88,73844.3,-0.57,-1.43,-1.35,0,*66
1516791926.99,25032,5.88,73846.8,-0.57,-1.79,-1.67,0,*6B
1516791928.21,25033,5.88,73844.3,-0.57,-1.43,-1.33,0,*62
1516791929.4,25034,5.88,73844.5,-0.57,-1.33,-1.21,0,*61
1516791930.6,25035,5.88,73846.5,-0.57,-1.17,-1.17,0,*63
1516791931.84,25036,5.88,73844.0,-0.55,-1.39,-1.29,0,*63
1516791933.11,25037,5.88,73844.5,-0.55,-1.43,-1.43,0,*63
1516791934.32,25038,5.88,73844.8,-0.55,-1.75,-1.67,0,*6F
1516791935.53,25039,5.94,73846.5,-0.55,-1.63,-1.51,0,*6C
1516791936.74,25040,5.88,73840.0,-0.55,-1.75,-1.63,0,*64
1516791937.96,25041,5.88,73840.0,-0.53,-1.55,-1.43,0,*63
1516791939.17,25042,5.94,73842.5,-0.55,-1.75,-1.63,0,*66
1516791940.38,25043,5.88,73844.8,-0.53,-1.51,-1.43,0,*65
1516791941.64,25044,5.88,73862.0,-0.55,-1.91,-1.91,0,*67
1516791942.85,25045,5.88,73876.5,-0.55,-2.19,-2.19,0,*66
1516791944.06,25046,5.88,73846.3,-0.55,-2.87,-2.79,0,*64
1516791945.27,25047,5.88,73850.3,-0.55,-3.31,-3.19,0,*6E
1516791946.5,25048,5.88,73850.0,-0.57,-3.71,-3.55,0,*6F
1516791947.76,25049,5.88,73848.5,-0.59,-3.59,-3.55,0,*6A
1516791948.99,25050,5.94,73850.3,-0.63,-3.39,-3.27,0,*68
1516791950.23,25051,5.88,73842.5,-0.63,-2.51,-2.35,0,*64
1516791951.47,25052,5.88,73846.3,-0.63,-2.47,-2.35,0,*60
1516791952.71,25053,5.94,73844.5,-0.61,-2.59,-2.47,0,*69
1516791953.92,25054,5.88,73846.8,-0.63,-2.39,-2.27,0,*6C
1516791955.13,25055,5.88,73850.0,-0.63,-2.39,-2.35,0,*6E
1516791956.35,25056,5.94,73854.0,-0.63,-2.99,-2.87,0,*6E
1516791957.54,25057,5.88,73856.3,-0.69,-2.95,-2.91,0,*6E
1516791958.76,25058,5.88,73850.0,-0.67,-3.95,-3.95,0,*6B
1516791959.99,25059,5.94,73858.5,-0.69,-3.71,-3.67,0,*63
1516791961.2,25060,5.88,73854.3,-0.71,-3.03,-3.03,0,*67
1516791962.46,25061,5.88,73844.3,-0.71,-3.55,-3.43,0,*61
1516791963.65,25062,5.88,73848.5,-0.73,-3.87,-3.75,0,*6A
1516791964.9,25063,5.88,73844.5,-0.75,-3.47,-3.35,0,*65
1516791966.09,25064,5.88,73842.8,-0.73,-3.35,-3.27,0,*62
1516791967.3,25065,5.94,73840.3,-0.77,-3.75,-3.55,0,*66
1516791968.52,25066,5.88,73836.8,-0.79,-3.39,-3.27,0,*66
1516791969.73,25067,5.94,73836.8,-0.79,-2.91,-2.79,0,*6E
1516791970.95,25068,5.94,73832.8,-0.79,-2.35,-2.27,0,*64
1516791972.19,25069,5.94,73830.5,-0.79,-2.15,-2.03,0,*61
1516791973.43,25070,5.94,73832.3,-0.79,-2.15,-2.11,0,*6A
1516791974.65,25071,5.94,73842.8,-0.77,-1.99,-1.79,0,*6F
1516791975.86,25072,5.88,73832.0,-0.77,-1.87,-1.75,0,*6F
1516791977.11,25073,5.88,73826.3,-0.77,-1.99,-1.87,0,*6C
1516791978.33,25074,5.88,73836.3,-0.77,-1.87,-1.79,0,*65
1516791979.55,25075,5.88,73834.3,-0.75,-1.71,-1.63,0,*64
1516791980.76,25076,5.94,73830.5,-0.77,-2.55,-2.43,0,*61
1516791982.0,25077,5.88,73828.0,-0.77,-2.67,-2.63,0,*63
1516791983.22,25078,5.94,73810.8,-0.77,-2.79,-2.75,0,*64
1516791984.44,25079,5.88,73800.0,-0.77,-2.87,-2.75,0,*64
1516791985.69,25080,5.94,73808.0,-0.77,-2.63,-2.51,0,*6E
1516791986.9,25081,5.88,73800.8,-0.77,-2.87,-2.67,0,*60
1516791988.09,25082,5.94,73838.3,-0.77,-3.03,-2.91,0,*67
1516791989.33,25083,5.94,73838.3,-0.79,-2.79,-2.75,0,*6E
1516791990.55,25084,5.88,73838.0,-0.81,-2.55,-2.43,0,*65
1516791991.74,25085,5.94,73836.3,-0.81,-2.43,-2.31,0,*66
1516791992.96,25086,5.94,73838.5,-0.79,-2.35,-2.23,0,*60
1516791994.18,25087,5.88,73836.3,-0.79,-2.27,-2.15,0,*67
1516791995.39,25088,5.94,73850.3,-0.79,-2.27,-2.23,0,*6D
1516791996.63,25089,5.94,73852.5,-0.79,-2.27,-2.03,0,*6E
1516791997.87,25090,5.88,73850.8,-0.79,-2.23,-2.11,0,*61
1516791999.06,25091,5.94,73846.3,-0.81,-2.27,-2.15,0,*67
1516792000.28,25092,5.94,73840.3,-0.79,-2.43,-2.35,0,*63
1516792001.5,25093,5.88,73828.5,-0.81,-2.27,-2.07,0,*66
1516792002.74,25094,5.94,73838.3,-0.79,-2.15,-2.03,0,*63
1516792004.01,25095,5.88,73832.8,-0.79,-2.63,-2.51,0,*64
1516792005.26,25096,5.88,73844.0,-0.79,-2.63,-2.39,0,*69
1516792006.5,25097,5.88,73846.5,-0.79,-2.15,-1.99,0,*60
1516792007.78,25098,5.94,73844.0,-0.79,-2.11,-2.03,0,*6B
1516792008.99,25099,5.88,73842.3,-0.77,-2.23,-2.03,0,*65
1516792010.2,25100,5.94,73844.5,-0.77,-2.15,-1.91,0,*69
1516792011.39,25101,5.94,73848.5,-0.77,-1.67,-1.55,0,*66
1516792012.61,25102,5.88,73836.0,-0.77,-2.03,-1.79,0,*6A
1516792013.79,25103,5.94,73834.3,-0.77,-1.63,-1.51,0,*64
1516792015.02,25104,5.94,73828.0,-0.75,-1.33,-1.21,0,*63
1516792016.26,25105,5.88,73822.3,-0.75,-1.21,-1.01,0,*63
1516792017.49,25106,5.88,73834.3,-0.71,-0.93,-0.81,0,*65
1516792018.73,25107,5.88,73838.8,-0.71,-1.43,-1.29,0,*6B
1516792019.97,25108,5.94,73838.0,-0.71,-1.29,-1.05,0,*66
1516792021.21,25109,5.88,73830.8,-0.71,-1.55,-1.43,0,*6E
1516792022.44,25110,5.94,73834.8,-0.71,-1.55,-1.43,0,*66
1516792023.66,25111,5.88,73830.3,-0.69,-1.55,-1.47,0,*6A
1516792024.85,25112,5.94,73828.8,-0.69,-1.29,-1.17,0,*67
1516792026.06,25113,5.94,73826.8,-0.67,-0.81,-0.69,0,*63
1516792027.29,25114,5.94,73832.3,-0.67,-0.93,-0.77,0,*68
1516792028.55,25115,5.94,73832.5,-0.63,-1.09,-0.97,0,*51
1516792029.78,25116,5.88,73820.8,-0.63,-1.25,-1.13,0,*61
1516792031.02,25117,5.94,73824.0,-0.61,-1.01,-0.89,0,*56
1516792032.25,25118,5.94,73826.5,-0.61,-1.01,-0.97,0,*56
1516792033.42,25119,5.88,73828.5,-0.61,-0.61,-0.57,0,*6C
1516792034.64,25120,5.94,73824.0,-0.59,-0.81,-0.69,0,*6E
1516792035.82,25121,5.94,73828.8,-0.57,-0.81,-0.69,0,*61
1516792037.01,25122,5.88,73828.5,-0.57,-1.33,-1.21,0,*67
1516792038.26,25123,5.94,73834.0,-0.57,-1.47,-1.35,0,*60
1516792039.47,25124,5.94,73842.8,-0.55,-1.33,-1.29,0,*6B
1516792040.67,25125,5.94,73832.0,-0.57,-1.33,-1.17,0,*65
1516792041.9,25126,5.94,73842.0,-0.55,-1.51,-1.39,0,*6C
1516792043.09,25127,5.94,73846.8,-0.53,-1.55,-1.51,0,*61
1516792044.3,25128,5.94,73840.5,-0.55,-2.31,-2.19,0,*66
1516792045.57,25129,5.94,73840.0,-0.55,-2.63,-2.55,0,*68
1516792046.81,25130,5.94,73838.5,-0.55,-2.15,-2.11,0,*61
1516792048.05,25131,5.94,73842.5,-0.57,-1.43,-1.35,0,*67
1516792049.26,25132,5.88,73840.0,-0.57,-0.85,-0.81,0,*61
1516792050.43,25133,5.94,73848.0,-0.57,-0.69,-0.61,0,*6C
1516792051.61,25134,5.94,73848.0,-0.53,-0.69,-0.57,0,*6A
1516792052.79,25135,5.94,73854.5,-0.53,-0.69,-0.57,0,*6B
1516792054.06,25136,5.88,73848.3,-0.51,-1.01,-1.05,0,*63
1516792055.3,25137,5.94,73854.3,-0.51,-1.25,-1.13,0,*63
1516792056.5,25138,5.94,73852.5,-0.51,-0.65,-0.61,0,*6D
1516792057.74,25139,5.94,73852.8,-0.49,-0.97,-0.97,0,*61
1516792058.95,25140,5.88,73850.5,-0.49,-0.97,-0.77,0,*61
1516792060.17,25141,5.88,73850.0,-0.49,-1.59,-1.47,0,*61
1516792061.38,25142,5.94,73854.0,-0.49,-1.51,-1.39,0,*63
1516792062.57,25143,5.94,73848.0,-0.49,-1.25,-1.25,0,*6C
1516792063.76,25144,5.88,73846.0,-0.49,-1.29,-1.25,0,*67
1516792064.98,25145,5.94,73842.8,-0.49,-1.21,-1.13,0,*6B
1516792066.23,25146,5.94,73850.3,-0.47,-1.21,-1.05,0,*61
1516792067.43,25147,5.94,73848.3,-0.45,-0.93,-0.81,0,*67
1516792068.64,25148,5.94,73852.0,-0.45,-1.43,-1.33,0,*6C
1516792069.86,25149,5.94,73848.3,-0.47,-2.43,-2.23,0,*6E
1516792071.07,25150,5.94,73850.3,-0.47,-2.35,-2.23,0,*67
1516792072.29,25151,5.94,73852.5,-0.47,-2.23,-2.23,0,*61
1516792073.52,25152,5.88,73852.0,-0.47,-2.19,-2.03,0,*69
1516792074.76,25153,5.94,73852.5,-0.47,-1.43,-1.33,0,*64
1516792075.99,25154,5.94,73848.0,-0.47,-0.85,-0.69,0,*66
1516792077.23,25155,5.94,73846.8,-0.47,-1.21,-1.05,0,*63
1516792078.48,25156,5.94,73808.8,-0.47,-0.93,-0.85,0,*61
1516792079.75,25157,5.94,73786.3,-0.47,-1.05,-1.05,0,*67
1516792080.99,25158,5.94,73778.8,-0.47,-1.83,-1.71,0,*65
1516792082.26,25159,5.94,73788.3,-0.47,-2.59,-2.67,0,*64
1516792083.47,25160,5.88,73788.8,-0.47,-3.11,-3.11,0,*63
1516792084.67,25161,5.94,73828.0,-0.49,-3.27,-3.27,0,*6C
1516792085.91,25162,5.94,73854.0,-0.51,-3.47,-3.39,0,*6F
1516792087.12,25163,5.94,73850.8,-0.51,-2.91,-2.87,0,*60
1516792088.37,25164,5.94,73852.3,-0.51,-2.47,-2.39,0,*69
1516792089.62,25165,5.94,73848.3,-0.53,-2.63,-2.63,0,*63
1516792090.89,25166,5.88,73846.3,-0.55,-2.63,-2.55,0,*63
1516792092.12,25167,5.94,73848.3,-0.55,-1.91,-1.75,0,*6D
1516792093.34,25168,5.94,73844.0,-0.53,-1.39,-1.29,0,*6F
1516792094.54,25169,5.94,73844.0,-0.53,-0.93,-0.81,0,*6C
1516792095.75,25170,5.94,73844.5,-0.53,-0.89,-0.81,0,*6F
1516792096.96,25171,5.94,73850.8,-0.51,-0.53,-0.45,0,*63
1516792098.14,25172,5.94,73850.8,-0.49,-0.61,-0.53,0,*6F
1516792099.32,25173,5.94,73848.0,-0.49,-0.77,-0.65,0,*6C
1516792100.5,25174,5.94,73854.0,-0.49,-0.77,-0.65,0,*6B
1516792101.74,25175,5.94,73852.8,-0.49,-1.01,-0.97,0,*57
1516792102.95,25176,5.94,73852.0,-0.49,-1.21,-1.13,0,*6B
1516792104.15,25177,5.94,73852.3,-0.45,-1.21,-1.17,0,*62
1516792105.36,25178,5.94,73852.3,-0.47,-1.67,-1.67,0,*6A
1516792106.63,25179,5.94,73852.5,-0.47,-1.91,-1.83,0,*68
1516792107.82,25180,5.94,73854.0,-0.45,-1.71,-1.79,0,*67
1516792109.03,25181,5.94,73852.5,-0.45,-1.59,-1.43,0,*65
1516792110.26,25182,5.94,73854.3,-0.45,-0.97,-0.93,0,*69
1516792111.45,25183,5.94,73858.8,-0.45,-0.57,-0.49,0,*63
1516792112.68,25184,5.94,73856.8,-0.45,-1.05,-0.97,0,*51
1516792113.88,25185,5.94,73856.8,-0.45,-1.21,-1.17,0,*6F
1516792115.07,25186,5.94,73852.8,-0.45,-1.79,-1.67,0,*66